Clifford Maersk — OYRO2 — position and weather

sailwx.info

Track history (hours):
 
Tides and Currents Weather Stations Pressure Air Temp Water Temp Dewpoint Dewpoint Depression Visibility Wind Speed Wind Dir Waves Ship Positions

Clifford Maersk

Last reported at 2014-Nov-28 10:33 UTC. Time now 2014-Nov-28 11:02 UTC.
Position N 35°16' E 139°46'.

Type: Ship (hazmat cat A). MMSI: 219840000.

Date/timePositionNaut miles runAvg speedWind from/ knotsBaromVisibWave heightAir tempDewpointWater temp
2014-Nov-28 10:33N 35°16' E 139°46'9 9.1
2014-Nov-28 09:34N 35°24' E 139°40'0 0.5
2014-Nov-28 08:34N 35°24' E 139°41'0 0.0
2014-Nov-28 07:32N 35°24' E 139°41'0 0.0
2014-Nov-28 06:32N 35°24' E 139°41'0 0.0
2014-Nov-28 05:32N 35°24' E 139°41'0 0.0
2014-Nov-28 04:32N 35°24' E 139°41'0 0.0
2014-Nov-28 03:32N 35°24' E 139°41'0 0.0
2014-Nov-28 02:32N 35°24' E 139°41'0 0.0
2014-Nov-28 01:32N 35°24' E 139°41'0 0.0
2014-Nov-28 00:32N 35°24' E 139°41'0 0.0
2014-Nov-27 23:32N 35°24' E 139°41'2 1.8
2014-Nov-27 22:34N 35°23' E 139°42'1110.7
2014-Nov-27 21:33N 35°13' E 139°47'1010.2
2014-Nov-27 20:33N 35°04' E 139°41'243 5.0
2014-Nov-25 19:33N 33°55' E 134°58'1313.3
2014-Nov-25 18:33N 34°08' E 134°58'1615.5
2014-Nov-25 17:33N 34°23' E 135°01'1919.1
2014-Nov-25 16:33N 34°38' E 135°16'3 2.9
2014-Nov-25 15:33N 34°41' E 135°16'0 0.0
2014-Nov-25 14:33N 34°41' E 135°16'0 0.0
2014-Nov-25 13:33N 34°41' E 135°16'0 0.0
2014-Nov-25 12:34N 34°41' E 135°16'0 0.0
2014-Nov-25 11:33N 34°41' E 135°16'0 0.0
2014-Nov-25 10:33N 34°41' E 135°16'0 0.0
2014-Nov-25 09:34N 34°41' E 135°16'0 0.0
2014-Nov-25 08:34N 34°41' E 135°16'0 0.0
2014-Nov-25 07:33N 34°41' E 135°16'0 0.0
2014-Nov-25 06:34N 34°41' E 135°16'0 0.0
2014-Nov-25 05:33N 34°41' E 135°16'0 0.0
2014-Nov-25 04:34N 34°41' E 135°16'0 0.0
2014-Nov-25 03:34N 34°41' E 135°16'0 0.0
2014-Nov-25 02:33N 34°41' E 135°16'0 0.0
2014-Nov-25 01:33N 34°41' E 135°16'0 0.0
2014-Nov-25 00:33N 34°41' E 135°16'0 0.0
2014-Nov-24 23:33N 34°41' E 135°16'1 0.9
2014-Nov-24 22:33N 34°40' E 135°15'9 9.2
2014-Nov-24 21:33N 34°31' E 135°12'1212.3
2014-Nov-24 20:33N 34°22' E 135°02'1110.7
2014-Nov-24 19:33N 34°12' E 134°59'9 8.5
2014-Nov-24 18:33N 34°03' E 134°57'  
2014-Nov-22 00:33N 24°27' E 119°17'1814.5
2014-Nov-21 23:18N 24°17' E 119°02'2614.2
2014-Nov-21 21:29N 24°01' E 118°39'1213.6
2014-Nov-21 20:33N 23°55' E 118°27'1312.7
2014-Nov-21 19:33N 23°47' E 118°16'1613.2
2014-Nov-21 18:23N 23°37' E 118°03'1313.0
2014-Nov-21 17:25N 23°30' E 117°52'1613.3
2014-Nov-21 16:12N 23°20' E 117°38'914.2
2014-Nov-21 15:33N 23°15' E 117°30'1715.3
2014-Nov-21 14:26N 23°05' E 117°15'1415.7
2014-Nov-21 13:33N 22°57' E 117°02'1615.4
2014-Nov-21 12:33N 22°48' E 116°49'1814.8
2014-Nov-21 11:21N 22°39' E 116°32'4413.6
2014-Nov-21 08:09N 22°24' E 115°48'8512.5
2014-Nov-21 01:24N 22°34' E 114°17'1 0.9
2014-Nov-21 00:25N 22°34' E 114°16'0 0.1
2014-Nov-20 23:33N 22°34' E 114°16'0 0.0
2014-Nov-20 22:33N 22°34' E 114°16'0 0.0
2014-Nov-20 21:33N 22°34' E 114°16'0 0.1
2014-Nov-20 20:33N 22°34' E 114°16'0 0.0
2014-Nov-20 19:33N 22°34' E 114°16'0 0.0
2014-Nov-20 18:33N 22°34' E 114°16'0 0.0
2014-Nov-20 17:22N 22°34' E 114°16'0 0.0
2014-Nov-20 16:14N 22°34' E 114°16'0 0.0
2014-Nov-20 13:33N 22°34' E 114°16'0 0.0
2014-Nov-20 06:18N 22°34' E 114°16'1 0.7
2014-Nov-20 05:32N 22°34' E 114°16'  
Track history (hours):
 
Tides and Currents Weather Stations Pressure Air Temp Water Temp Dewpoint Dewpoint Depression Visibility Wind Speed Wind Dir Waves Ship Positions

Clifford Maersk

Last reported at 2014-Nov-28 10:33 UTC. Time now 2014-Nov-28 11:02 UTC.
Position N 35°16' E 139°46'.

Type: Ship (hazmat cat A). MMSI: 219840000.

Date/timePositionNaut miles runAvg speedWind from/ knotsBaromVisibWave heightAir tempDewpointWater temp
2014-Nov-28 10:33N 35°16' E 139°46'9 9.1
2014-Nov-28 09:34N 35°24' E 139°40'0 0.5
2014-Nov-28 08:34N 35°24' E 139°41'0 0.0
2014-Nov-28 07:32N 35°24' E 139°41'0 0.0
2014-Nov-28 06:32N 35°24' E 139°41'0 0.0
2014-Nov-28 05:32N 35°24' E 139°41'0 0.0
2014-Nov-28 04:32N 35°24' E 139°41'0 0.0
2014-Nov-28 03:32N 35°24' E 139°41'0 0.0
2014-Nov-28 02:32N 35°24' E 139°41'0 0.0
2014-Nov-28 01:32N 35°24' E 139°41'0 0.0
2014-Nov-28 00:32N 35°24' E 139°41'0 0.0
2014-Nov-27 23:32N 35°24' E 139°41'2 1.8
2014-Nov-27 22:34N 35°23' E 139°42'1110.7
2014-Nov-27 21:33N 35°13' E 139°47'1010.2
2014-Nov-27 20:33N 35°04' E 139°41'243 5.0
2014-Nov-25 19:33N 33°55' E 134°58'1313.3
2014-Nov-25 18:33N 34°08' E 134°58'1615.5
2014-Nov-25 17:33N 34°23' E 135°01'1919.1
2014-Nov-25 16:33N 34°38' E 135°16'3 2.9
2014-Nov-25 15:33N 34°41' E 135°16'0 0.0
2014-Nov-25 14:33N 34°41' E 135°16'0 0.0
2014-Nov-25 13:33N 34°41' E 135°16'0 0.0
2014-Nov-25 12:34N 34°41' E 135°16'0 0.0
2014-Nov-25 11:33N 34°41' E 135°16'0 0.0
2014-Nov-25 10:33N 34°41' E 135°16'0 0.0
2014-Nov-25 09:34N 34°41' E 135°16'0 0.0
2014-Nov-25 08:34N 34°41' E 135°16'0 0.0
2014-Nov-25 07:33N 34°41' E 135°16'0 0.0
2014-Nov-25 06:34N 34°41' E 135°16'0 0.0
2014-Nov-25 05:33N 34°41' E 135°16'0 0.0
2014-Nov-25 04:34N 34°41' E 135°16'0 0.0
2014-Nov-25 03:34N 34°41' E 135°16'0 0.0
2014-Nov-25 02:33N 34°41' E 135°16'0 0.0
2014-Nov-25 01:33N 34°41' E 135°16'0 0.0
2014-Nov-25 00:33N 34°41' E 135°16'0 0.0
2014-Nov-24 23:33N 34°41' E 135°16'1 0.9
2014-Nov-24 22:33N 34°40' E 135°15'9 9.2
2014-Nov-24 21:33N 34°31' E 135°12'1212.3
2014-Nov-24 20:33N 34°22' E 135°02'1110.7
2014-Nov-24 19:33N 34°12' E 134°59'9 8.5
2014-Nov-24 18:33N 34°03' E 134°57'  
2014-Nov-22 00:33N 24°27' E 119°17'1814.5
2014-Nov-21 23:18N 24°17' E 119°02'2614.2
2014-Nov-21 21:29N 24°01' E 118°39'1213.6
2014-Nov-21 20:33N 23°55' E 118°27'1312.7
2014-Nov-21 19:33N 23°47' E 118°16'1613.2
2014-Nov-21 18:23N 23°37' E 118°03'1313.0
2014-Nov-21 17:25N 23°30' E 117°52'1613.3
2014-Nov-21 16:12N 23°20' E 117°38'914.2
2014-Nov-21 15:33N 23°15' E 117°30'1715.3
2014-Nov-21 14:26N 23°05' E 117°15'1415.7
2014-Nov-21 13:33N 22°57' E 117°02'1615.4
2014-Nov-21 12:33N 22°48' E 116°49'1814.8
2014-Nov-21 11:21N 22°39' E 116°32'4413.6
2014-Nov-21 08:09N 22°24' E 115°48'8512.5
2014-Nov-21 01:24N 22°34' E 114°17'1 0.9
2014-Nov-21 00:25N 22°34' E 114°16'0 0.1
2014-Nov-20 23:33N 22°34' E 114°16'0 0.0
2014-Nov-20 22:33N 22°34' E 114°16'0 0.0
2014-Nov-20 21:33N 22°34' E 114°16'0 0.1
2014-Nov-20 20:33N 22°34' E 114°16'0 0.0
2014-Nov-20 19:33N 22°34' E 114°16'0 0.0
2014-Nov-20 18:33N 22°34' E 114°16'0 0.0
2014-Nov-20 17:22N 22°34' E 114°16'0 0.0
2014-Nov-20 16:14N 22°34' E 114°16'0 0.0
2014-Nov-20 13:33N 22°34' E 114°16'0 0.0
2014-Nov-20 06:18N 22°34' E 114°16'1 0.7
2014-Nov-20 05:32N 22°34' E 114°16'  

Dump ship's entire track history